[[{"header":{"parameterUnit":"m.s-1","parameterCategory":2,"la1":30.2992,"la2":30.254,"lo1":-89.0895,"lo2":-89.0443,"dy":0.0025,"dx":0.0025,"nx":19,"ny":19,"refTime":"2026-03-19T09:00:00:Z","depth":"0","parameterNumber":2,"parameterNumberName":"U-component_of_CURRENTS"},"data":[0,0,0,0.1122,0.1121,0.1227,0.1228,0.1522,0.1524,0,0,0,0,0,0,0,0,0,0,0,0.1169,0.117,0.1122,0.1121,0.1227,0.1228,0.1521,0.1524,0,0,0,0,0,0,0,0,0,0,0,0.1168,0.117,0.1171,0.1121,0.1226,0.1228,0.1521,0.142,0,0,0,0,0,0,0,0,0,0,0.1306,0.1259,0.1169,0.1171,0.1121,0.1226,0.1229,0.1415,0.1427,0.1495,0,0.1521,0,0.1462,0.154,0.1541,0,0,0,0.1199,0.1249,0.1288,0.1171,0.1121,0.1226,0.1201,0.1421,0.1434,0.1511,0.1524,0.1532,0.1467,0.1541,0.1543,0.1724,0.1724,0,0,0.1193,0.118,0.1279,0.1297,0.1165,0.1197,0.1203,0.1428,0.1446,0.1525,0.1536,0.1472,0.1543,0.1545,0.1724,0.1724,0,0,0,0.1124,0.1176,0.1209,0.1289,0.1258,0.1198,0.1206,0.1438,0.1452,0.1538,0.1475,0.1544,0.1547,0.1724,0.1724,0.166,0,0,0,0.1124,0.1129,0.1207,0.1199,0.1252,0.131,0.121,0.1441,0.1459,0.1473,0.1545,0.155,0.1723,0.1724,0.1661,0.1629,0,0,0,0.1161,0.113,0.1152,0.1199,0.1199,0.1304,0.1334,0.1444,0.1417,0.1541,0.155,0.1723,0.1724,0.1662,0.1631,0.1623,0,0,0,0.1134,0.1227,0.1153,0.1203,0.1198,0.1267,0.1332,0.1431,0.154,0.1546,0.1723,0.1724,0.1663,0.1633,0.1625,0.1519,0.1504,0,0,0.1247,0.1239,0.1261,0.1195,0.1219,0.1257,0.131,0.1488,0.1564,0.1674,0.1678,0.1661,0.1632,0.1624,0.1544,0.1528,0,0,0,0.129,0.1285,0.1288,0.1258,0.1293,0.13,0.1411,0.1474,0.1605,0.1608,0.1688,0.1672,0.1668,0.1609,0.1596,0.1676,0.1726,0.1726,0.1726,0.1313,0.1302,0.1311,0.1287,0.1317,0.1362,0.1428,0.153,0.1598,0.1643,0.164,0.1617,0.1553,0.1542,0.1626,0.1666,0.1666,0.1666,0.1665,0.1347,0.1319,0.128,0.1294,0.1283,0.1327,0.1427,0.149,0.1573,0.1616,0.1616,0.1569,0.1524,0.1619,0.1662,0.1662,0.1663,0.1663,0.1664,0.1274,0.1288,0.1287,0.1282,0.1275,0.1291,0.1342,0.1434,0.1518,0.1532,0.148,0.148,0.1547,0.1524,0.1524,0.1524,0.1524,0.1524,0.1523,0.1238,0.1264,0.1273,0.1263,0.1223,0.122,0.13,0.1347,0.1377,0.1406,0.1406,0.1547,0.1574,0.156,0.1521,0.1521,0.1522,0.1522,0.1522,0.1196,0.1265,0.1255,0.1232,0.1158,0.1129,0.119,0.1202,0.1253,0.1245,0.1377,0.1357,0.137,0.138,0.1363,0.1274,0.1274,0.1274,0.1274,0.118,0.1211,0.1229,0.1181,0.1108,0.1083,0.1013,0.1023,0.116,0.1222,0.1324,0.1339,0.1345,0.1361,0.1371,0.1357,0.1269,0.127,0.127,0.1167,0.1185,0.1153,0.1141,0.1065,0.1009,0.0898,0.0863,0.1101,0.1285,0.1459,0.1459,0.1503,0.1507,0.155,0.1558,0.1541,0,0]},{"header":{"parameterUnit":"m.s-1","parameterCategory":2,"la1":30.2992,"la2":30.254,"lo1":-89.0895,"lo2":-89.0443,"dy":0.0025,"dx":0.0025,"nx":19,"ny":19,"refTime":"2026-03-19T09:00:00:Z","depth":"0","parameterNumber":3,"parameterNumberName":"V-component_of_CURRENTS"},"data":[0,0,0,-0.0089,-0.0088,-0.0036,-0.0036,0.0174,0.0176,0,0,0,0,0,0,0,0,0,0,0,-0.0087,-0.0086,-0.0089,-0.0088,-0.0036,-0.0036,0.0174,0.0176,0,0,0,0,0,0,0,0,0,0,0,-0.0087,-0.0087,-0.0086,-0.0088,-0.0036,-0.0036,0.0173,0.01,0,0,0,0,0,0,0,0,0,0,0.0033,-0.001,-0.0087,-0.0086,-0.0088,-0.0036,-0.0036,0.0095,0.0105,0.0189,0,0.0205,0,0.0189,0.0193,0.0194,0,0,0,-0.008,-0.0018,0.0013,-0.0086,-0.0087,-0.0036,-0.0057,0.01,0.0111,0.0202,0.0208,0.0214,0.0192,0.0194,0.0196,0.037,0.037,0,0,-0.0083,-0.0091,0.0005,0.002,-0.0058,-0.0059,-0.0056,0.0105,0.0117,0.0208,0.0218,0.0196,0.0196,0.0198,0.037,0.037,0,0,0,-0.0096,-0.0093,-0.0069,0.0013,0.0007,-0.0058,-0.0054,0.0109,0.0123,0.022,0.0198,0.0197,0.02,0.037,0.037,0.0386,0,0,0,-0.0098,-0.0102,-0.007,-0.0077,0.0003,0.0033,-0.0053,0.0112,0.0128,0.0197,0.0197,0.0203,0.037,0.037,0.0385,0.0416,0,0,0,-0.0092,-0.0103,-0.0089,-0.0077,-0.006,0.0029,0.005,0.0114,0.0116,0.0194,0.0203,0.037,0.037,0.0384,0.0414,0.0425,0,0,0,-0.0114,-0.0096,-0.0088,-0.0066,-0.006,0.0014,0.0048,0.0113,0.0179,0.0199,0.037,0.037,0.0384,0.0413,0.0424,0.0378,0.0379,0,0,-0.0107,-0.0096,-0.0081,-0.0073,-0.0006,0.0007,0.0094,0.0189,0.0208,0.0329,0.0332,0.0385,0.0414,0.0425,0.0386,0.0386,0,0,0,-0.0089,-0.007,-0.0047,-0.0009,0.0044,0.0126,0.0187,0.0213,0.0286,0.0244,0.0383,0.0402,0.0408,0.0377,0.0378,0.0419,0.037,0.037,0.037,-0.0091,-0.0057,-0.001,0.0057,0.0117,0.0217,0.0274,0.0324,0.0339,0.035,0.0412,0.0432,0.0399,0.0399,0.0441,0.0396,0.0396,0.0396,0.0396,-0.0062,-0.0022,0.003,0.0082,0.0183,0.0267,0.038,0.0393,0.0451,0.043,0.0434,0.0393,0.0401,0.0445,0.0397,0.0397,0.0397,0.0397,0.0397,-0.0041,-0.0014,0.0004,0.0084,0.0192,0.0299,0.0395,0.0455,0.047,0.0494,0.0443,0.0442,0.0484,0.0479,0.0479,0.0479,0.0479,0.0479,0.0479,-0.0024,0.0002,0.0039,0.0105,0.0161,0.0261,0.0401,0.0438,0.0471,0.0476,0.0475,0.0495,0.0457,0.0457,0.0482,0.0482,0.0481,0.0481,0.0481,0.0035,0.0014,0.0075,0.0113,0.022,0.0295,0.0385,0.0438,0.0472,0.0473,0.05,0.046,0.0456,0.0454,0.0454,0.0476,0.0476,0.0476,0.0476,0.0053,0.0055,0.0125,0.0194,0.027,0.0334,0.0379,0.0413,0.0471,0.0499,0.0523,0.0493,0.0491,0.0488,0.0485,0.0486,0.0516,0.0517,0.0517,0.0088,0.0104,0.0161,0.0212,0.0304,0.035,0.0362,0.0417,0.0513,0.0526,0.0595,0.0593,0.0556,0.055,0.0548,0.0541,0.0542,0,0]}],[{"header":{"parameterUnit":"m.s-1","parameterCategory":2,"la1":30.2992,"la2":30.254,"lo1":-89.0895,"lo2":-89.0443,"dy":0.0025,"dx":0.0025,"nx":19,"ny":19,"refTime":"2026-03-19T09:00:00:Z","depth":"2","parameterNumber":2,"parameterNumberName":"U-component_of_CURRENTS"},"data":[0,0,0,0.0304,0.0302,0.0251,0.0251,0.0681,0.0686,0,0,0,0,0,0,0,0,0,0,0,0.0421,0.0422,0.0305,0.0301,0.0251,0.0251,0.068,0.0686,0,0,0,0,0,0,0,0,0,0,0,0.0421,0.0422,0.0423,0.0301,0.025,0.0251,0.0679,0.0608,0,0,0,0,0,0,0,0,0,0,0.0602,0.0594,0.0421,0.0423,0.03,0.025,0.0251,0.06,0.0613,0.0827,0,0.0845,0,0.072,0.072,0.0722,0,0,0,0.0359,0.0583,0.0568,0.0423,0.0299,0.025,0.029,0.0604,0.0619,0.0847,0.0848,0.0858,0.0727,0.0724,0.0726,0.1123,0.1123,0,0,0.0362,0.0421,0.0556,0.0577,0.0331,0.0291,0.0287,0.0608,0.0658,0.0849,0.0863,0.0735,0.0727,0.0731,0.1122,0.1123,0,0,0,0.0331,0.0424,0.0391,0.0567,0.0487,0.0288,0.0284,0.0645,0.0634,0.0866,0.074,0.073,0.0737,0.1122,0.1122,0.1132,0,0,0,0.0336,0.0398,0.0394,0.0429,0.0478,0.0484,0.0315,0.0615,0.064,0.0737,0.073,0.0742,0.1121,0.1122,0.1131,0.1126,0,0,0,0.0415,0.0404,0.041,0.0432,0.0368,0.0473,0.048,0.0615,0.0564,0.0723,0.0743,0.1121,0.1122,0.113,0.1124,0.1125,0,0,0,0.0459,0.0369,0.0415,0.0418,0.0369,0.0414,0.0475,0.0584,0.0725,0.0733,0.1121,0.1122,0.1129,0.1123,0.1125,0.0945,0.0934,0,0,0.0322,0.0357,0.0384,0.0416,0.0384,0.0422,0.0519,0.0735,0.081,0.1062,0.1067,0.1131,0.1124,0.1125,0.1007,0.0994,0,0,0,0.0331,0.0385,0.0408,0.0441,0.0461,0.0524,0.067,0.0761,0.0948,0.0875,0.1151,0.1146,0.1146,0.1037,0.1027,0.1127,0.1127,0.1127,0.1127,0.0439,0.0429,0.0456,0.049,0.0554,0.0645,0.0772,0.0924,0.1033,0.1092,0.1169,0.1195,0.1081,0.1071,0.1191,0.1191,0.1191,0.1191,0.1191,0.0442,0.0493,0.055,0.0525,0.0595,0.0719,0.091,0.0983,0.1174,0.1189,0.1189,0.1071,0.106,0.1192,0.1192,0.1192,0.1191,0.1191,0.1191,0.0631,0.056,0.0569,0.0537,0.0623,0.0756,0.0929,0.1059,0.1155,0.122,0.1085,0.1083,0.1182,0.1212,0.1212,0.1212,0.1212,0.1212,0.1212,0.0702,0.0635,0.0664,0.0616,0.0632,0.0757,0.092,0.1033,0.1053,0.1077,0.1075,0.1202,0.1201,0.1183,0.1212,0.1212,0.1212,0.1212,0.1212,0.0699,0.0751,0.0709,0.0705,0.0721,0.0764,0.0857,0.0909,0.0974,0.0943,0.0994,0.0999,0.0974,0.0979,0.0956,0.0924,0.0924,0.0924,0.0924,0.0764,0.0793,0.0771,0.075,0.079,0.0775,0.0755,0.0721,0.0759,0.0689,0.07,0.0652,0.0667,0.0624,0.0637,0.0607,0.0485,0.0484,0.0484,0.0735,0.0747,0.0743,0.0782,0.0787,0.0787,0.0664,0.0499,0.0411,0.0473,0.0691,0.0881,0.0836,0.0851,0.0806,0.082,0.078,0,0]},{"header":{"parameterUnit":"m.s-1","parameterCategory":2,"la1":30.2992,"la2":30.254,"lo1":-89.0895,"lo2":-89.0443,"dy":0.0025,"dx":0.0025,"nx":19,"ny":19,"refTime":"2026-03-19T09:00:00:Z","depth":"2","parameterNumber":3,"parameterNumberName":"V-component_of_CURRENTS"},"data":[0,0,0,-0.0187,-0.0186,-0.0266,-0.0267,-0.0134,-0.0132,0,0,0,0,0,0,0,0,0,0,0,-0.0212,-0.0213,-0.0187,-0.0186,-0.0266,-0.0267,-0.0135,-0.0132,0,0,0,0,0,0,0,0,0,0,0,-0.0212,-0.0212,-0.0213,-0.0186,-0.0266,-0.0267,-0.0135,-0.0147,0,0,0,0,0,0,0,0,0,0,-0.0105,-0.0145,-0.0212,-0.0213,-0.0186,-0.0265,-0.0267,-0.0151,-0.0146,-0.0013,0,-0.0034,0,-0.0022,-0.0112,-0.0111,0,0,0,-0.0244,-0.015,-0.0145,-0.0213,-0.0186,-0.0265,-0.0246,-0.0151,-0.0145,-0.0005,-0.0032,-0.0027,-0.002,-0.011,-0.0109,0.0115,0.0116,0,0,-0.0239,-0.0242,-0.015,-0.0142,-0.0209,-0.0243,-0.0248,-0.0151,-0.0152,-0.0032,-0.0024,-0.0017,-0.0108,-0.0106,0.0115,0.0116,0,0,0,-0.0188,-0.0239,-0.0245,-0.0147,-0.0148,-0.0244,-0.025,-0.016,-0.0156,-0.0023,-0.0016,-0.0107,-0.0103,0.0115,0.0115,0.0149,0,0,0,-0.0188,-0.0204,-0.0243,-0.0247,-0.0152,-0.0183,-0.0261,-0.0166,-0.0152,-0.0016,-0.0106,-0.01,0.0115,0.0115,0.0147,0.0197,0,0,0,-0.0208,-0.0205,-0.0213,-0.0247,-0.0247,-0.0185,-0.0182,-0.0166,-0.0141,-0.0111,-0.0099,0.0114,0.0115,0.0146,0.0193,0.0206,0,0,0,-0.0211,-0.0233,-0.0214,-0.0211,-0.0246,-0.02,-0.0183,-0.0143,-0.0116,-0.0105,0.0115,0.0115,0.0145,0.0191,0.0204,0.0133,0.0136,0,0,-0.0236,-0.0237,-0.0226,-0.0207,-0.0163,-0.0193,-0.0116,-0.0072,-0.0061,0.009,0.0092,0.0148,0.0193,0.0205,0.017,0.0172,0,0,0,-0.0228,-0.0213,-0.0196,-0.0165,-0.0133,-0.008,-0.0045,-0.0028,0.0027,-0.003,0.0151,0.018,0.0186,0.0139,0.0141,0.0118,0.0118,0.0118,0.0118,-0.0239,-0.0205,-0.0168,-0.0107,-0.0064,0.0017,0.0055,0.0093,0.0109,0.0119,0.0208,0.0248,0.0198,0.0199,0.0191,0.0191,0.0191,0.0191,0.0191,-0.0215,-0.0171,-0.012,-0.0075,0.0005,0.0083,0.0187,0.0193,0.0274,0.0237,0.024,0.0179,0.0203,0.0194,0.0193,0.0193,0.0193,0.0192,0.0192,-0.0173,-0.0156,-0.015,-0.0087,0.0018,0.0132,0.0242,0.0298,0.0309,0.0353,0.0272,0.027,0.0276,0.0332,0.0332,0.0333,0.0333,0.0333,0.0333,-0.0157,-0.0155,-0.012,-0.0062,-0.0001,0.012,0.0263,0.0311,0.0333,0.0332,0.033,0.0296,0.0292,0.0285,0.0337,0.0337,0.0336,0.0336,0.0335,-0.0095,-0.0161,-0.0086,-0.005,0.0084,0.017,0.0257,0.0312,0.035,0.0342,0.0306,0.0305,0.0292,0.0288,0.0282,0.0331,0.0331,0.0331,0.0331,-0.0101,-0.0102,-0.0045,0.0039,0.0149,0.0215,0.0262,0.0261,0.0273,0.0233,0.0237,0.0175,0.0177,0.0154,0.0154,0.0143,0.0156,0.0156,0.0155,-0.0096,-0.0068,-0.0003,0.0073,0.019,0.025,0.0244,0.0209,0.0161,0.015,0.0223,0.0316,0.0232,0.0233,0.0202,0.0199,0.0183,0,0]}],[{"header":{"parameterUnit":"m.s-1","parameterCategory":2,"la1":30.2992,"la2":30.254,"lo1":-89.0895,"lo2":-89.0443,"dy":0.0025,"dx":0.0025,"nx":19,"ny":19,"refTime":"2026-03-19T09:00:00:Z","depth":"4","parameterNumber":2,"parameterNumberName":"U-component_of_CURRENTS"},"data":[0,0,0,-0.0772,-0.0771,-0.0791,-0.0791,-0.0912,-0.0912,0,0,0,0,0,0,0,0,0,0,0,-0.0796,-0.0796,-0.0772,-0.077,-0.0791,-0.0791,-0.0911,-0.0912,0,0,0,0,0,0,0,0,0,0,0,-0.0796,-0.0796,-0.0796,-0.077,-0.079,-0.0791,-0.0911,-0.0883,0,0,0,0,0,0,0,0,0,0,-0.0855,-0.0846,-0.0796,-0.0796,-0.077,-0.079,-0.0791,-0.0881,-0.0884,-0.0917,0,-0.0913,0,-0.0885,-0.0919,-0.0919,0,0,0,-0.0812,-0.0842,-0.0838,-0.0796,-0.077,-0.079,-0.0793,-0.0882,-0.0887,-0.0922,-0.0914,-0.0917,-0.0887,-0.0919,-0.092,-0.1111,-0.1112,0,0,-0.0811,-0.0814,-0.0835,-0.0841,-0.0767,-0.0792,-0.0793,-0.0884,-0.0893,-0.0914,-0.0918,-0.0889,-0.092,-0.0921,-0.111,-0.1111,0,0,0,-0.078,-0.0813,-0.0807,-0.0837,-0.0816,-0.0792,-0.0793,-0.089,-0.0885,-0.0919,-0.089,-0.0921,-0.0922,-0.1108,-0.111,-0.1188,0,0,0,-0.0781,-0.0791,-0.0806,-0.081,-0.0813,-0.0836,-0.0797,-0.088,-0.0887,-0.0889,-0.0921,-0.0923,-0.1107,-0.1109,-0.1182,-0.1235,0,0,0,-0.0797,-0.0792,-0.0791,-0.081,-0.0794,-0.0834,-0.0836,-0.0882,-0.0868,-0.0919,-0.0923,-0.1106,-0.1109,-0.1178,-0.1226,-0.1213,0,0,0,-0.0807,-0.08,-0.0791,-0.0788,-0.0794,-0.082,-0.0835,-0.0878,-0.0924,-0.0921,-0.1107,-0.111,-0.1176,-0.1221,-0.1209,-0.0778,0,0,0,-0.0802,-0.08,-0.08,-0.079,-0.0787,-0.0821,-0.0883,-0.0948,-0.0993,-0.1087,-0.1091,-0.1184,-0.1226,-0.1212,-0.0976,0,0,0,0,-0.0801,-0.0804,-0.0802,-0.08,-0.0812,-0.088,-0.0936,-0.0999,-0.1147,-0.1024,-0.123,-0.1255,-0.1242,-0.0982,-0.1126,-0.1126,-0.1125,-0.1125,-0.1125,-0.08,-0.0804,-0.0809,-0.0837,-0.0871,-0.0938,-0.1025,-0.1139,-0.1181,-0.1294,-0.135,-0.1445,-0.1179,-0.1377,-0.1378,-0.1378,-0.1379,-0.1379,-0.1379,-0.077,-0.0774,-0.0817,-0.0847,-0.0927,-0.1024,-0.1181,-0.1257,-0.1444,-0.1479,-0.146,-0.1126,-0.1388,-0.1386,-0.1385,-0.1384,-0.1383,-0.1383,-0.1382,-0.0747,-0.0755,-0.0816,-0.0889,-0.1001,-0.1128,-0.1182,-0.1419,-0.1533,-0.1579,-0.1272,-0.1491,-0.1442,-0.1578,-0.1578,-0.1579,-0.1579,-0.1579,-0.1579,-0.0703,-0.0754,-0.0817,-0.0921,-0.0998,-0.1111,-0.1286,-0.1276,-0.1442,-0.1338,-0.1627,-0.1511,-0.1504,-0.1454,-0.1582,-0.1582,-0.1581,-0.1581,-0.1581,-0.0652,-0.0701,-0.0777,-0.0842,-0.0911,-0.0939,-0.1086,-0.0997,-0.0976,-0.0895,-0.1152,-0.1172,-0.1091,-0.1094,-0.1026,-0.1032,-0.1027,-0.1022,0,-0.0612,-0.0629,-0.0711,-0.0728,-0.0713,-0.0775,-0.0536,-0.0521,-0.073,-0.0785,-0.1009,-0.1313,-0.1321,-0.1238,-0.1232,-0.1155,0,0,0,-0.0558,-0.0579,-0.0605,-0.062,-0.0593,-0.0431,-0.0469,-0.0425,-0.0747,-0.0471,-0.0893,-0.0927,-0.1034,-0.1593,-0.1516,-0.1508,-0.1423,0,0]},{"header":{"parameterUnit":"m.s-1","parameterCategory":2,"la1":30.2992,"la2":30.254,"lo1":-89.0895,"lo2":-89.0443,"dy":0.0025,"dx":0.0025,"nx":19,"ny":19,"refTime":"2026-03-19T09:00:00:Z","depth":"4","parameterNumber":3,"parameterNumberName":"V-component_of_CURRENTS"},"data":[0,0,0,0.0142,0.0141,0.0061,0.0061,-0.0009,-0.0009,0,0,0,0,0,0,0,0,0,0,0,0.0183,0.0183,0.0143,0.014,0.0061,0.0061,-0.0008,-0.0009,0,0,0,0,0,0,0,0,0,0,0,0.0183,0.0183,0.0182,0.014,0.0061,0.0061,-0.0008,0.0044,0,0,0,0,0,0,0,0,0,0,0.0118,0.0128,0.0183,0.0182,0.014,0.0061,0.0061,0.0047,0.0041,0.0035,0,0.0028,0,0.0,-0.0013,-0.0014,0,0,0,0.0144,0.0133,0.0129,0.0182,0.0139,0.0061,0.0098,0.0043,0.0037,0.0028,0.0027,0.0023,-0.0001,-0.0014,-0.0014,-0.003,-0.0029,0,0,0.0149,0.0149,0.0134,0.0126,0.0125,0.01,0.0095,0.0039,0.0025,0.0026,0.0021,-0.0002,-0.0014,-0.0015,-0.003,-0.0029,0,0,0,0.0159,0.0152,0.0149,0.013,0.0108,0.0098,0.0092,0.0028,0.0032,0.002,-0.0003,-0.0015,-0.0015,-0.003,-0.003,-0.0104,0,0,0,0.0161,0.0158,0.0151,0.0148,0.0109,0.0056,0.0082,0.0037,0.0029,-0.0002,-0.0015,-0.0016,-0.0031,-0.003,-0.0103,-0.0141,0,0,0,0.0185,0.0159,0.0157,0.0149,0.0113,0.0056,0.0056,0.0034,0.0015,-0.0014,-0.0016,-0.0031,-0.003,-0.0102,-0.0138,-0.012,0,0,0,0.018,0.0132,0.0157,0.0077,0.0114,0.0037,0.0056,-0.001,-0.0041,-0.0015,-0.003,-0.003,-0.0101,-0.0136,-0.0119,-0.0104,0,0,0,0.011,0.0123,0.0071,0.009,-0.0014,0.0048,-0.0042,-0.0068,-0.002,-0.001,-0.0011,-0.0103,-0.0138,-0.012,-0.0059,0,0,0,0,0.004,0.0013,-0.0019,-0.0073,-0.0101,-0.0118,-0.0116,-0.0099,-0.0077,-0.0035,-0.0067,-0.0086,-0.0072,-0.0058,-0.0026,-0.0026,-0.0026,-0.0026,-0.0027,-0.0026,-0.0064,-0.0155,-0.0189,-0.0224,-0.0234,-0.0239,-0.0192,-0.0139,-0.0114,-0.012,-0.0122,-0.0108,-0.0084,-0.0085,-0.0085,-0.0085,-0.0085,-0.0086,-0.0134,-0.0187,-0.0233,-0.0328,-0.0335,-0.0372,-0.0338,-0.0292,-0.0219,-0.0165,-0.0147,-0.0105,-0.0092,-0.0091,-0.009,-0.0089,-0.0088,-0.0088,-0.0088,-0.0157,-0.019,-0.0256,-0.0381,-0.044,-0.0437,-0.0439,-0.0376,-0.0279,-0.0262,-0.0166,-0.0151,-0.0173,-0.0208,-0.0208,-0.0208,-0.0208,-0.0208,-0.0208,-0.0149,-0.0221,-0.0325,-0.0434,-0.0479,-0.0499,-0.0468,-0.0429,-0.0336,-0.0237,-0.024,-0.0162,-0.0158,-0.0177,-0.021,-0.0209,-0.0209,-0.0209,-0.0209,-0.0202,-0.0236,-0.0369,-0.0442,-0.0531,-0.0523,-0.0508,-0.0422,-0.0355,-0.0299,-0.0217,-0.0216,-0.018,-0.0175,-0.0194,-0.0233,-0.0233,-0.0232,0,-0.0223,-0.0258,-0.0423,-0.0506,-0.0535,-0.0523,-0.0433,-0.0396,-0.0319,-0.0271,-0.035,-0.026,-0.0257,-0.0219,-0.0214,-0.0238,0,0,0,-0.0286,-0.031,-0.0418,-0.05,-0.0525,-0.0419,-0.0395,-0.0358,-0.0308,-0.0319,-0.0231,-0.0231,-0.0326,-0.0214,-0.0155,-0.015,-0.0177,0,0]}]]